| time (UTC) | temp C | wind direction | speed KPH | gust KPH | rain 1hr cm | rain 24hr cm | rain mn cm | humidity % | barometer mb |
| 20260905032822 | 22 | 195 | 0.0 | 0.0 | 0.00 | 0.03 | 0.03 | 99 | 1015.4 |
| 20260905032318 | 22 | 195 | 0.0 | 0.0 | 0.00 | 0.03 | 0.03 | 99 | 1015.6 |
| 20260905031813 | 22 | 195 | 0.0 | 0.0 | 0.00 | 0.03 | 0.03 | 99 | 1015.3 |
| 20260905031309 | 22 | 195 | 0.0 | 0.0 | 0.00 | 0.03 | 0.03 | 99 | 1015.5 |
| 20260905030804 | 22 | 195 | 0.0 | 0.0 | 0.00 | 0.03 | 0.03 | 99 | 1015.4 |
| 20260905030300 | 22 | 195 | 0.0 | 0.0 | 0.00 | 0.03 | 0.03 | 99 | 1015.5 |
| 20260905025759 | 23 | 195 | 0.0 | 1.6 | 0.00 | 0.03 | 0.03 | 99 | 1015.4 |
| 20260905025255 | 23 | 195 | 0.0 | 0.0 | 0.00 | 0.03 | 0.03 | 99 | 1015.4 |
| 20260905024750 | 23 | 195 | 0.0 | 0.0 | 0.00 | 0.03 | 0.03 | 99 | 1015.4 |
| 20260905024246 | 23 | 195 | 0.0 | 0.0 | 0.00 | 0.03 | 0.03 | 99 | 1015.0 |
| 20260905023747 | 23 | 195 | 0.0 | 0.0 | 0.00 | 0.03 | 0.03 | 99 | 1015.5 |
| 20260905023242 | 23 | 195 | 0.0 | 0.0 | 0.00 | 0.03 | 0.03 | 99 | 1015.5 |
| 20260905022741 | 23 | 195 | 0.0 | 0.0 | 0.00 | 0.03 | 0.03 | 99 | 1015.4 |
| 20260905022237 | 23 | 195 | 0.0 | 0.0 | 0.00 | 0.03 | 0.03 | 99 | 1015.3 |
| 20260905021737 | 23 | 195 | 0.0 | 0.0 | 0.00 | 0.03 | 0.03 | 99 | 1015.4 |
| 20260905021232 | 23 | 195 | 0.0 | 0.0 | 0.00 | 0.03 | 0.03 | 99 | 1015.3 |
| 20260905020731 | 23 | 195 | 0.0 | 0.0 | 0.00 | 0.03 | 0.03 | 99 | 1015.4 |
| 20260905020227 | 23 | 195 | 0.0 | 0.0 | 0.00 | 0.03 | 0.03 | 99 | 1015.3 |
| 20260905015725 | 23 | 195 | 0.0 | 0.0 | 0.00 | 0.03 | 0.03 | 99 | 1015.3 |
| 20260905015220 | 23 | 195 | 0.0 | 0.0 | 0.00 | 0.03 | 0.03 | 99 | 1015.3 |
| 20260905014719 | 23 | 195 | 0.0 | 0.0 | 0.00 | 0.03 | 0.03 | 99 | 1015.3 |
| 20260905014215 | 23 | 195 | 0.0 | 0.0 | 0.00 | 0.03 | 0.03 | 98 | 1015.3 |
| 20260905013710 | 23 | 195 | 0.0 | 0.0 | 0.00 | 0.03 | 0.03 | 98 | 1015.2 |
| 20260905013206 | 23 | 196 | 0.0 | 0.0 | 0.00 | 0.03 | 0.03 | 98 | 1015.1 |
| 20260905012701 | 23 | 196 | 0.0 | 0.0 | 0.00 | 0.03 | 0.03 | 98 | 1015.0 |
| 20260905012157 | 23 | 196 | 0.0 | 0.0 | 0.00 | 0.03 | 0.03 | 98 | 1014.9 |
| 20260905011654 | 24 | 196 | 0.0 | 0.0 | 0.00 | 0.03 | 0.03 | 98 | 1015.0 |
| 20260905011149 | 24 | 196 | 0.0 | 0.0 | 0.00 | 0.03 | 0.03 | 98 | 1015.1 |
| 20260905010644 | 24 | 196 | 0.0 | 0.0 | 0.00 | 0.03 | 0.03 | 98 | 1015.0 |
| 20260905010140 | 24 | 196 | 0.0 | 0.0 | 0.00 | 0.03 | 0.03 | 98 | 1014.8 |
| 20260905005636 | 24 | 196 | 0.0 | 0.0 | 0.00 | 0.03 | 0.03 | 98 | 1014.9 |
| 20260905005131 | 24 | 196 | 0.0 | 0.0 | 0.00 | 0.03 | 0.03 | 97 | 1015.0 |
| 20260905004631 | 24 | 196 | 0.0 | 0.0 | 0.00 | 0.03 | 0.03 | 97 | 1014.9 |
| 20260905004126 | 25 | 196 | 0.0 | 0.0 | 0.00 | 0.03 | 0.03 | 97 | 1014.9 |
| 20260905003622 | 25 | 196 | 0.0 | 0.0 | 0.00 | 0.03 | 0.03 | 97 | 1014.5 |
| 20260905003117 | 25 | 196 | 0.0 | 0.0 | 0.00 | 0.03 | 0.03 | 97 | 1014.4 |
| 20260905002613 | 25 | 196 | 0.0 | 0.0 | 0.00 | 0.03 | 0.03 | 97 | 1014.5 |
| 20260905002107 | 25 | 196 | 0.0 | 0.0 | 0.00 | 0.03 | 0.03 | 96 | 1014.4 |
| 20260905001603 | 25 | 196 | 0.0 | 0.0 | 0.00 | 0.03 | 0.03 | 96 | 1014.4 |
| 20260905001102 | 25 | 196 | 0.0 | 0.0 | 0.00 | 0.03 | 0.03 | 96 | 1014.7 |
| 20260905000557 | 25 | 196 | 0.0 | 0.0 | 0.00 | 0.03 | 0.03 | 95 | 1014.3 |
| 20260905000054 | 25 | 196 | 0.0 | 0.0 | 0.00 | 0.03 | 0.03 | 95 | 1014.4 |
| 20260904235553 | 25 | 196 | 0.0 | 0.0 | 0.00 | 0.03 | 0.03 | 95 | 1014.2 |
| 20260904235053 | 26 | 196 | 0.0 | 0.0 | 0.00 | 0.03 | 0.03 | 95 | 1014.4 |
| 20260904234548 | 26 | 196 | 0.0 | 0.0 | 0.00 | 0.03 | 0.03 | 94 | 1014.4 |
| 20260904234045 | 26 | 196 | 0.0 | 0.0 | 0.00 | 0.03 | 0.03 | 94 | 1014.2 |
| 20260904233545 | 26 | 196 | 0.0 | 0.0 | 0.00 | 0.03 | 0.03 | 94 | 1014.2 |
| 20260904233041 | 26 | 182 | 0.0 | 0.0 | 0.00 | 0.03 | 0.03 | 94 | 1014.1 |
| 20260904232537 | 26 | 182 | 0.0 | 0.0 | 0.00 | 0.03 | 0.03 | 93 | 1014.2 |
| 20260904232033 | 26 | 182 | 0.0 | 0.0 | 0.00 | 0.03 | 0.03 | 93 | 1014.2 |
| 20260904231530 | 26 | 181 | 0.0 | 1.6 | 0.00 | 0.03 | 0.03 | 92 | 1014.3 |
| 20260904231030 | 26 | 188 | 0.0 | 0.0 | 0.00 | 0.03 | 0.03 | 93 | 1014.4 |
| 20260904230528 | 26 | 188 | 0.0 | 0.0 | 0.00 | 0.03 | 0.03 | 93 | 1014.3 |
| 20260904230025 | 26 | 196 | 1.6 | 1.6 | 0.00 | 0.03 | 0.03 | 93 | 1014.1 |
| 20260904225522 | 26 | 206 | 1.6 | 1.6 | 0.00 | 0.03 | 0.03 | 92 | 1013.7 |
| 20260904225021 | 26 | 204 | 0.0 | 1.6 | 0.00 | 0.03 | 0.03 | 92 | 1013.2 |
| 20260904224517 | 26 | 203 | 0.0 | 0.0 | 0.00 | 0.03 | 0.03 | 91 | 1013.2 |
| 20260904224017 | 26 | 203 | 0.0 | 0.0 | 0.00 | 0.03 | 0.03 | 90 | 1013.4 |
| 20260904223515 | 27 | 203 | 1.6 | 1.6 | 0.00 | 0.03 | 0.03 | 89 | 1013.6 |
| 20260904223012 | 27 | 212 | 0.0 | 0.0 | 0.00 | 0.03 | 0.03 | 89 | 1013.5 |
| 20260904222507 | 27 | 213 | 0.0 | 0.0 | 0.00 | 0.03 | 0.03 | 89 | 1013.6 |
| 20260904222002 | 27 | 213 | 0.0 | 0.0 | 0.00 | 0.03 | 0.03 | 89 | 1013.7 |
| 20260904221456 | 27 | 213 | 0.0 | 0.0 | 0.00 | 0.03 | 0.03 | 89 | 1013.9 |
| 20260904220952 | 27 | 214 | 0.0 | 0.0 | 0.00 | 0.03 | 0.03 | 88 | 1014.3 |
| 20260904220451 | 28 | 214 | 0.0 | 0.0 | 0.00 | 0.03 | 0.03 | 86 | 1014.4 |
| 20260904215946 | 27 | 214 | 0.0 | 0.0 | 0.00 | 0.03 | 0.03 | 85 | 1014.8 |
| 20260904215441 | 28 | 214 | 0.0 | 0.0 | 0.00 | 0.03 | 0.03 | 83 | 1014.8 |
| 20260904214937 | 28 | 214 | 0.0 | 0.0 | 0.00 | 0.03 | 0.03 | 81 | 1014.8 |
| 20260904214432 | 28 | 214 | 0.0 | 0.0 | 0.00 | 0.03 | 0.03 | 83 | 1014.5 |
| 20260904213927 | 28 | 214 | 0.0 | 0.0 | 0.00 | 0.03 | 0.03 | 81 | 1014.7 |
| 20260904213421 | 29 | 214 | 0.0 | 0.0 | 0.00 | 0.03 | 0.03 | 79 | 1014.8 |
| 20260904212917 | 28 | 214 | 0.0 | 0.0 | 0.00 | 0.03 | 0.03 | 82 | 1014.9 |
| 20260904212416 | 29 | 214 | 0.0 | 1.6 | 0.00 | 0.03 | 0.03 | 78 | 1015.3 |
| 20260904211912 | 30 | 214 | 0.0 | 0.0 | 0.00 | 0.03 | 0.03 | 76 | 1015.4 |
| 20260904211407 | 30 | 215 | 0.0 | 0.0 | 0.00 | 0.03 | 0.03 | 72 | 1014.8 |
| 20260904210902 | 30 | 190 | 0.0 | 0.0 | 0.00 | 0.03 | 0.03 | 70 | 1015.0 |
| 20260904210401 | 31 | 207 | 1.6 | 1.6 | 0.00 | 0.03 | 0.03 | 69 | 1014.9 |
| 20260904205858 | 31 | 224 | 3.2 | 3.2 | 0.00 | 0.03 | 0.03 | 65 | 1014.9 |
| 20260904205353 | 31 | 262 | 1.6 | 1.6 | 0.00 | 0.03 | 0.03 | 66 | 1015.0 |
| 20260904204849 | 31 | 62 | 1.6 | 1.6 | 0.00 | 0.03 | 0.03 | 65 | 1014.8 |
| 20260904204346 | 31 | 164 | 1.6 | 1.6 | 0.00 | 0.03 | 0.03 | 68 | 1015.0 |
| 20260904203841 | 31 | 219 | 1.6 | 3.2 | 0.00 | 0.03 | 0.03 | 69 | 1015.2 |
| 20260904203338 | 30 | 213 | 0.0 | 0.0 | 0.00 | 0.03 | 0.03 | 69 | 1015.2 |
| 20260904202833 | 30 | 147 | 1.6 | 3.2 | 0.00 | 0.03 | 0.03 | 71 | 1015.5 |
| 20260904202329 | 30 | 223 | 1.6 | 1.6 | 0.00 | 0.03 | 0.03 | 70 | 1015.5 |
| 20260904201825 | 31 | 13 | 6.4 | 6.4 | 0.00 | 0.03 | 0.03 | 70 | 1015.5 |
| 20260904201324 | 31 | 262 | 6.4 | 6.4 | 0.00 | 0.03 | 0.03 | 70 | 1015.6 |
| 20260904200819 | 31 | 192 | 1.6 | 1.6 | 0.00 | 0.03 | 0.03 | 70 | 1015.5 |
| 20260904200318 | 31 | 219 | 1.6 | 1.6 | 0.00 | 0.03 | 0.03 | 71 | 1015.5 |
| 20260904195813 | 31 | 180 | 1.6 | 1.6 | 0.00 | 0.03 | 0.03 | 71 | 1015.5 |
| 20260904195311 | 30 | 213 | 1.6 | 1.6 | 0.00 | 0.03 | 0.03 | 71 | 1015.7 |
| 20260904194806 | 30 | 203 | 0.0 | 1.6 | 0.00 | 0.03 | 0.03 | 75 | 1015.7 |
| 20260904194306 | 29 | 212 | 1.6 | 1.6 | 0.00 | 0.03 | 0.03 | 77 | 1015.9 |
| 20260904193801 | 30 | 212 | 1.6 | 1.6 | 0.00 | 0.03 | 0.03 | 76 | 1015.8 |
| 20260904193256 | 30 | 229 | 1.6 | 1.6 | 0.00 | 0.03 | 0.03 | 78 | 1016.0 |
| 20260904192751 | 30 | 183 | 0.0 | 0.0 | 0.00 | 0.03 | 0.03 | 77 | 1015.7 |
| 20260904192247 | 30 | 193 | 0.0 | 0.0 | 0.00 | 0.03 | 0.03 | 75 | 1015.8 |
| 20260904191744 | 30 | 191 | 0.0 | 0.0 | 0.00 | 0.03 | 0.03 | 76 | 1015.8 |
| 20260904191240 | 29 | 196 | 0.0 | 0.0 | 0.00 | 0.03 | 0.03 | 80 | 1016.1 |
| 20260904190736 | 29 | 169 | 1.6 | 3.2 | 0.00 | 0.03 | 0.03 | 81 | 1016.2 |
| 20260904190231 | 29 | 193 | 0.0 | 0.0 | 0.00 | 0.03 | 0.03 | 80 | 1016.3 |
| 20260904185728 | 28 | 210 | 0.0 | 0.0 | 0.00 | 0.03 | 0.03 | 82 | 1016.3 |
| 20260904185228 | 28 | 212 | 1.6 | 3.2 | 0.00 | 0.03 | 0.03 | 83 | 1016.3 |
| 20260904184726 | 28 | 179 | 1.6 | 1.6 | 0.00 | 0.03 | 0.03 | 81 | 1016.1 |
| 20260904184223 | 28 | 152 | 3.2 | 3.2 | 0.00 | 0.03 | 0.03 | 82 | 1016.0 |
| 20260904183719 | 27 | 210 | 0.0 | 0.0 | 0.00 | 0.03 | 0.03 | 87 | 1016.0 |
| 20260904183218 | 27 | 211 | 0.0 | 1.6 | 0.00 | 0.03 | 0.03 | 87 | 1015.9 |
| 20260904181757 | 27 | 211 | 0.0 | 0.0 | 0.00 | 0.03 | 0.03 | 86 | 1016.2 |
| 20260904181257 | 27 | 211 | 0.0 | 0.0 | 0.00 | 0.03 | 0.03 | 86 | 1016.2 |
| 20260904180752 | 27 | 211 | 0.0 | 0.0 | 0.00 | 0.03 | 0.03 | 86 | 1016.2 |
| 20260904180248 | 27 | 211 | 1.6 | 1.6 | 0.00 | 0.03 | 0.03 | 84 | 1016.5 |
| 20260904175747 | 27 | 212 | 1.6 | 1.6 | 0.00 | 0.03 | 0.03 | 80 | 1016.3 |
| 20260904175245 | 28 | 201 | 0.0 | 1.6 | 0.00 | 0.03 | 0.03 | 78 | 1015.8 |
| 20260904174740 | 28 | 173 | 1.6 | 3.2 | 0.00 | 0.03 | 0.03 | 77 | 1016.2 |
| 20260904174236 | 28 | 70 | 3.2 | 3.2 | 0.00 | 0.03 | 0.03 | 76 | 1016.9 |
| 20260904173732 | 28 | 37 | 6.4 | 9.7 | 0.18 | 0.03 | 0.03 | 74 | 1017.0 |
| 20260904173232 | 30 | 357 | 9.7 | 14.5 | 0.18 | 0.03 | 0.03 | 72 | 1017.1 |
| 20260904172729 | 30 | 165 | 6.4 | 6.4 | 0.00 | 0.00 | 0.00 | 70 | 1016.9 |
| 20260904172227 | 30 | 217 | 3.2 | 3.2 | 0.00 | 0.00 | 0.00 | 77 | 1016.7 |
| 20260904171723 | 29 | 188 | 0.0 | 0.0 | 0.00 | 0.00 | 0.00 | 83 | 1016.4 |
| 20260904171218 | 30 | 185 | 0.0 | 0.0 | 0.00 | 0.00 | 0.00 | 79 | 1016.4 |
| 20260904170714 | 31 | 59 | 4.8 | 6.4 | 0.00 | 0.00 | 0.00 | 72 | 1016.7 |
| 20260904170210 | 31 | 27 | 8.0 | 11.3 | 0.00 | 0.00 | 0.00 | 68 | 1016.7 |
| 20260904165709 | 32 | 210 | 0.0 | 0.0 | 0.00 | 0.00 | 0.00 | 70 | 1016.6 |
| 20260904165208 | 32 | 176 | 1.6 | 3.2 | 0.00 | 0.00 | 0.00 | 66 | 1016.7 |
| 20260904164703 | 32 | 55 | 8.0 | 11.3 | 0.00 | 0.00 | 0.00 | 64 | 1016.8 |
| 20260904164158 | 32 | 151 | 1.6 | 3.2 | 0.00 | 0.00 | 0.00 | 63 | 1016.6 |
| 20260904163654 | 32 | 82 | 1.6 | 4.8 | 0.00 | 0.00 | 0.00 | 63 | 1016.6 |
| 20260904163149 | 32 | 188 | 1.6 | 1.6 | 0.00 | 0.00 | 0.00 | 62 | 1016.7 |
| 20260904162648 | 33 | 277 | 3.2 | 3.2 | 0.00 | 0.00 | 0.00 | 64 | 1016.8 |
| 20260904162143 | 32 | 203 | 0.0 | 1.6 | 0.00 | 0.00 | 0.00 | 65 | 1016.7 |
| 20260904161639 | 33 | 36 | 1.6 | 3.2 | 0.00 | 0.00 | 0.00 | 62 | 1016.7 |
| 20260904161134 | 33 | 202 | 1.6 | 1.6 | 0.00 | 0.00 | 0.00 | 61 | 1016.5 |
| 20260904160630 | 33 | 296 | 4.8 | 4.8 | 0.00 | 0.00 | 0.00 | 63 | 1016.5 |
| 20260904160125 | 33 | 189 | 0.0 | 1.6 | 0.00 | 0.00 | 0.00 | 62 | 1016.7 |
| 20260904155620 | 32 | 159 | 1.6 | 3.2 | 0.00 | 0.00 | 0.00 | 66 | 1016.8 |
| 20260904155114 | 32 | 216 | 1.6 | 1.6 | 0.00 | 0.00 | 0.00 | 64 | 1016.5 |
| 20260904154607 | 32 | 325 | 4.8 | 4.8 | 0.00 | 0.00 | 0.00 | 64 | 1016.5 |
| 20260904154102 | 32 | 212 | 1.6 | 1.6 | 0.00 | 0.00 | 0.00 | 65 | 1016.7 |
| 20260904153601 | 32 | 208 | 3.2 | 3.2 | 0.00 | 0.00 | 0.00 | 67 | 1016.8 |
| 20260904153058 | 31 | 50 | 3.2 | 4.8 | 0.00 | 0.00 | 0.00 | 68 | 1016.7 |
| 20260904152554 | 31 | 49 | 4.8 | 4.8 | 0.00 | 0.00 | 0.00 | 66 | 1016.9 |
| 20260904152049 | 31 | 142 | 1.6 | 3.2 | 0.00 | 0.00 | 0.00 | 68 | 1016.9 |
| 20260904151544 | 31 | 226 | 3.2 | 4.8 | 0.00 | 0.00 | 0.00 | 67 | 1016.7 |
| 20260904151043 | 31 | 123 | 1.6 | 1.6 | 0.00 | 0.00 | 0.00 | 70 | 1017.0 |
| 20260904150538 | 31 | 164 | 4.8 | 4.8 | 0.00 | 0.00 | 0.00 | 69 | 1016.9 |
| 20260904150033 | 30 | 197 | 0.0 | 0.0 | 0.00 | 0.00 | 0.00 | 73 | 1016.9 |
| 20260904145532 | 30 | 199 | 0.0 | 0.0 | 0.00 | 0.00 | 0.00 | 74 | 1017.1 |
| 20260904145027 | 31 | 44 | 3.2 | 3.2 | 0.00 | 0.00 | 0.00 | 71 | 1017.1 |
| 20260904144523 | 31 | 217 | 0.0 | 1.6 | 0.00 | 0.00 | 0.00 | 70 | 1017.0 |
| 20260904144019 | 31 | 191 | 0.0 | 0.0 | 0.00 | 0.00 | 0.00 | 74 | 1016.9 |
| 20260904143514 | 30 | 178 | 1.6 | 1.6 | 0.00 | 0.00 | 0.00 | 73 | 1016.9 |
| 20260904143012 | 30 | 181 | 1.6 | 1.6 | 0.00 | 0.00 | 0.00 | 76 | 1016.8 |
| 20260904142508 | 29 | 140 | 3.2 | 3.2 | 0.00 | 0.00 | 0.00 | 76 | 1016.8 |
| 20260904142007 | 28 | 190 | 3.2 | 3.2 | 0.00 | 0.00 | 0.00 | 84 | 1016.7 |
| 20260904141502 | 28 | 165 | 1.6 | 1.6 | 0.00 | 0.00 | 0.00 | 80 | 1017.1 |
| 20260904140959 | 28 | 152 | 3.2 | 4.8 | 0.00 | 0.00 | 0.00 | 80 | 1017.0 |
| 20260904140459 | 28 | 142 | 3.2 | 4.8 | 0.00 | 0.00 | 0.00 | 79 | 1017.0 |
| 20260904135957 | 28 | 168 | 0.0 | 1.6 | 0.00 | 0.00 | 0.00 | 80 | 1016.8 |
| 20260904135452 | 27 | 174 | 1.6 | 3.2 | 0.00 | 0.00 | 0.00 | 81 | 1016.7 |
| 20260904134948 | 27 | 156 | 1.6 | 1.6 | 0.00 | 0.00 | 0.00 | 82 | 1016.9 |
| 20260904134442 | 27 | 172 | 3.2 | 3.2 | 0.00 | 0.00 | 0.00 | 83 | 1016.8 |
| 20260904133937 | 27 | 173 | 1.6 | 1.6 | 0.00 | 0.00 | 0.00 | 84 | 1016.9 |
| 20260904133431 | 26 | 176 | 0.0 | 0.0 | 0.00 | 0.00 | 0.00 | 90 | 1017.1 |
| 20260904132927 | 25 | 185 | 0.0 | 0.0 | 0.00 | 0.00 | 0.00 | 91 | 1017.0 |
| 20260904132422 | 25 | 205 | 0.0 | 0.0 | 0.00 | 0.00 | 0.00 | 96 | 1017.3 |
| 20260904131922 | 24 | 205 | 0.0 | 0.0 | 0.00 | 0.00 | 0.00 | 98 | 1017.2 |
| 20260904131417 | 24 | 205 | 0.0 | 0.0 | 0.00 | 0.00 | 0.00 | 99 | 1017.2 |
| 20260904130913 | 24 | 205 | 0.0 | 0.0 | 0.00 | 0.00 | 0.00 | 99 | 1017.1 |
| 20260904130411 | 24 | 205 | 0.0 | 0.0 | 0.00 | 0.00 | 0.00 | 99 | 1017.5 |
| 20260904125907 | 23 | 205 | 0.0 | 0.0 | 0.00 | 0.00 | 0.00 | 99 | 1017.4 |
| 20260904125403 | 23 | 205 | 0.0 | 0.0 | 0.00 | 0.00 | 0.00 | 99 | 1017.7 |
| 20260904124902 | 23 | 205 | 0.0 | 0.0 | 0.00 | 0.00 | 0.00 | 99 | 1017.6 |
| 20260904124354 | 23 | 205 | 0.0 | 0.0 | 0.00 | 0.00 | 0.00 | 99 | 1017.5 |
| 20260904123854 | 23 | 205 | 0.0 | 0.0 | 0.00 | 0.00 | 0.00 | 99 | 1017.6 |
| 20260904123350 | 22 | 205 | 0.0 | 0.0 | 0.00 | 0.00 | 0.00 | 99 | 1017.5 |
| 20260904122845 | 22 | 205 | 0.0 | 0.0 | 0.00 | 0.00 | 0.00 | 99 | 1017.5 |
| 20260904122344 | 22 | 205 | 0.0 | 0.0 | 0.00 | 0.00 | 0.00 | 99 | 1017.6 |
| 20260904121839 | 22 | 205 | 0.0 | 0.0 | 0.00 | 0.00 | 0.00 | 99 | 1017.5 |
| 20260904121335 | 21 | 205 | 0.0 | 0.0 | 0.00 | 0.00 | 0.00 | 99 | 1017.4 |
| 20260904120831 | 21 | 205 | 0.0 | 0.0 | 0.00 | 0.00 | 0.00 | 99 | 1017.4 |
| 20260904120327 | 21 | 205 | 0.0 | 0.0 | 0.00 | 0.00 | 0.00 | 99 | 1017.6 |
| 20260904115822 | 21 | 205 | 0.0 | 0.0 | 0.00 | 0.00 | 0.00 | 99 | 1017.5 |
| 20260904115318 | 21 | 205 | 0.0 | 0.0 | 0.00 | 0.00 | 0.00 | 99 | 1017.4 |
| 20260904114817 | 21 | 205 | 0.0 | 0.0 | 0.00 | 0.00 | 0.00 | 99 | 1017.2 |
| 20260904114312 | 21 | 205 | 0.0 | 0.0 | 0.00 | 0.00 | 0.00 | 99 | 1017.3 |
| 20260904113807 | 21 | 205 | 0.0 | 0.0 | 0.00 | 0.00 | 0.00 | 99 | 1017.3 |
| 20260904113306 | 21 | 205 | 0.0 | 0.0 | 0.00 | 0.00 | 0.00 | 99 | 1017.0 |
| 20260904112801 | 21 | 205 | 0.0 | 0.0 | 0.00 | 0.00 | 0.00 | 99 | 1017.0 |
| 20260904112256 | 21 | 205 | 0.0 | 0.0 | 0.00 | 0.00 | 0.00 | 99 | 1016.9 |
| 20260904111752 | 21 | 206 | 0.0 | 0.0 | 0.00 | 0.00 | 0.00 | 99 | 1017.0 |
| 20260904111248 | 21 | 206 | 0.0 | 0.0 | 0.00 | 0.00 | 0.00 | 99 | 1016.6 |
| 20260904110743 | 21 | 206 | 0.0 | 1.6 | 0.00 | 0.00 | 0.00 | 99 | 1016.8 |
| 20260904110242 | 21 | 205 | 0.0 | 0.0 | 0.00 | 0.00 | 0.00 | 99 | 1016.5 |
| 20260904105737 | 21 | 205 | 0.0 | 0.0 | 0.00 | 0.00 | 0.00 | 99 | 1016.4 |
| 20260904105232 | 21 | 205 | 0.0 | 0.0 | 0.00 | 0.00 | 0.00 | 99 | 1016.2 |
| 20260904104727 | 21 | 206 | 0.0 | 0.0 | 0.00 | 0.00 | 0.00 | 99 | 1016.1 |
| 20260904104223 | 21 | 205 | 0.0 | 0.0 | 0.00 | 0.00 | 0.00 | 99 | 1015.9 |
| 20260904103720 | 21 | 205 | 0.0 | 0.0 | 0.00 | 0.00 | 0.00 | 99 | 1015.7 |
| 20260904103215 | 21 | 205 | 0.0 | 0.0 | 0.00 | 0.00 | 0.00 | 99 | 1015.9 |
| 20260904102710 | 21 | 206 | 0.0 | 0.0 | 0.00 | 0.00 | 0.00 | 99 | 1015.9 |
| 20260904102205 | 21 | 205 | 0.0 | 0.0 | 0.00 | 0.00 | 0.00 | 99 | 1016.0 |
| 20260904101702 | 21 | 205 | 0.0 | 0.0 | 0.00 | 0.00 | 0.00 | 99 | 1016.0 |
| 20260904101157 | 21 | 205 | 0.0 | 0.0 | 0.00 | 0.00 | 0.00 | 99 | 1016.0 |
| 20260904100653 | 21 | 205 | 0.0 | 0.0 | 0.00 | 0.00 | 0.00 | 99 | 1015.9 |
| 20260904100149 | 21 | 205 | 0.0 | 0.0 | 0.00 | 0.00 | 0.00 | 99 | 1015.9 |
| 20260904095648 | 21 | 205 | 0.0 | 0.0 | 0.00 | 0.00 | 0.00 | 99 | 1015.8 |
| 20260904095148 | 21 | 206 | 0.0 | 0.0 | 0.00 | 0.00 | 0.00 | 99 | 1015.9 |
| 20260904094644 | 21 | 206 | 0.0 | 0.0 | 0.00 | 0.00 | 0.00 | 99 | 1015.8 |
| 20260904094138 | 21 | 205 | 0.0 | 0.0 | 0.00 | 0.00 | 0.00 | 99 | 1015.8 |
| 20260904093636 | 21 | 206 | 0.0 | 0.0 | 0.00 | 0.00 | 0.00 | 99 | 1016.0 |
| 20260904093135 | 21 | 205 | 0.0 | 0.0 | 0.00 | 0.00 | 0.00 | 99 | 1016.0 |
| 20260904092631 | 21 | 205 | 0.0 | 0.0 | 0.00 | 0.00 | 0.00 | 99 | 1015.9 |
| 20260904092127 | 21 | 205 | 0.0 | 0.0 | 0.00 | 0.00 | 0.00 | 99 | 1015.9 |
| 20260904091623 | 21 | 206 | 0.0 | 0.0 | 0.00 | 0.00 | 0.00 | 99 | 1015.9 |
| 20260904091123 | 21 | 205 | 0.0 | 0.0 | 0.00 | 0.00 | 0.00 | 99 | 1016.0 |
| 20260904090618 | 21 | 206 | 0.0 | 0.0 | 0.00 | 0.00 | 0.00 | 99 | 1015.7 |
| 20260904090114 | 21 | 206 | 0.0 | 0.0 | 0.00 | 0.00 | 0.00 | 99 | 1015.9 |
| 20260904085608 | 21 | 205 | 0.0 | 0.0 | 0.00 | 0.00 | 0.00 | 99 | 1015.7 |
| 20260904085108 | 21 | 205 | 0.0 | 0.0 | 0.00 | 0.00 | 0.00 | 99 | 1015.9 |
| 20260904084603 | 21 | 205 | 0.0 | 0.0 | 0.00 | 0.00 | 0.00 | 99 | 1015.8 |
| 20260904084100 | 21 | 206 | 0.0 | 0.0 | 0.00 | 0.00 | 0.00 | 99 | 1015.8 |
| 20260904083556 | 21 | 206 | 0.0 | 0.0 | 0.00 | 0.00 | 0.00 | 99 | 1015.7 |
| 20260904083051 | 21 | 206 | 0.0 | 0.0 | 0.00 | 0.00 | 0.00 | 99 | 1015.8 |
| 20260904082546 | 21 | 205 | 0.0 | 0.0 | 0.00 | 0.00 | 0.00 | 99 | 1015.8 |
| 20260904082041 | 21 | 205 | 0.0 | 0.0 | 0.00 | 0.00 | 0.00 | 99 | 1015.8 |
| 20260904081537 | 21 | 205 | 0.0 | 0.0 | 0.00 | 0.00 | 0.00 | 99 | 1015.8 |
| 20260904081032 | 21 | 205 | 0.0 | 0.0 | 0.00 | 0.00 | 0.00 | 99 | 1015.8 |
| 20260904080527 | 21 | 205 | 0.0 | 0.0 | 0.00 | 0.00 | 0.00 | 99 | 1015.7 |
| 20260904080024 | 21 | 206 | 0.0 | 0.0 | 0.00 | 0.00 | 0.00 | 99 | 1015.9 |
| 20260904075519 | 21 | 206 | 0.0 | 0.0 | 0.00 | 0.00 | 0.00 | 99 | 1016.0 |
| 20260904075015 | 21 | 205 | 0.0 | 0.0 | 0.00 | 0.00 | 0.00 | 99 | 1015.9 |
| 20260904074509 | 22 | 206 | 0.0 | 0.0 | 0.00 | 0.00 | 0.00 | 99 | 1015.9 |
| 20260904074003 | 22 | 205 | 0.0 | 0.0 | 0.00 | 0.00 | 0.00 | 99 | 1016.0 |
| 20260904073459 | 22 | 205 | 0.0 | 0.0 | 0.00 | 0.00 | 0.00 | 99 | 1016.0 |
| 20260904072955 | 22 | 206 | 0.0 | 0.0 | 0.00 | 0.00 | 0.00 | 99 | 1015.9 |
| 20260904072450 | 22 | 206 | 0.0 | 0.0 | 0.00 | 0.00 | 0.00 | 99 | 1016.0 |
| 20260904071950 | 22 | 206 | 0.0 | 0.0 | 0.00 | 0.00 | 0.00 | 99 | 1016.1 |
| 20260904071446 | 22 | 205 | 0.0 | 0.0 | 0.00 | 0.00 | 0.00 | 99 | 1016.0 |
| 20260904070946 | 22 | 206 | 0.0 | 0.0 | 0.00 | 0.00 | 0.00 | 99 | 1016.2 |
| 20260904070444 | 22 | 205 | 0.0 | 0.0 | 0.00 | 0.00 | 0.00 | 99 | 1016.1 |
| 20260904065939 | 22 | 205 | 0.0 | 0.0 | 0.00 | 0.00 | 0.00 | 99 | 1016.1 |
| 20260904065435 | 22 | 205 | 0.0 | 0.0 | 0.00 | 0.00 | 0.00 | 99 | 1016.2 |
| 20260904064930 | 22 | 205 | 0.0 | 0.0 | 0.00 | 0.00 | 0.00 | 99 | 1016.3 |
| 20260904064426 | 22 | 206 | 0.0 | 0.0 | 0.00 | 0.00 | 0.00 | 99 | 1016.3 |
| 20260904063921 | 22 | 206 | 0.0 | 0.0 | 0.00 | 0.00 | 0.00 | 99 | 1016.2 |
| 20260904063418 | 22 | 205 | 0.0 | 0.0 | 0.00 | 0.00 | 0.00 | 99 | 1016.2 |
| 20260904062912 | 22 | 205 | 0.0 | 0.0 | 0.00 | 0.00 | 0.00 | 99 | 1016.1 |
| 20260904062409 | 22 | 205 | 0.0 | 0.0 | 0.00 | 0.00 | 0.00 | 99 | 1016.1 |
| 20260904061904 | 22 | 205 | 0.0 | 0.0 | 0.00 | 0.00 | 0.00 | 99 | 1016.2 |
| 20260904061400 | 22 | 205 | 0.0 | 0.0 | 0.00 | 0.00 | 0.00 | 99 | 1016.1 |
| 20260904060856 | 22 | 205 | 0.0 | 0.0 | 0.00 | 0.00 | 0.00 | 99 | 1016.3 |
| 20260904060352 | 22 | 205 | 0.0 | 0.0 | 0.00 | 0.00 | 0.00 | 99 | 1016.4 |
| 20260904055847 | 22 | 205 | 0.0 | 0.0 | 0.00 | 0.00 | 0.00 | 99 | 1016.1 |
| 20260904055342 | 22 | 206 | 0.0 | 0.0 | 0.00 | 0.00 | 0.00 | 99 | 1016.3 |
| 20260904054838 | 23 | 206 | 0.0 | 0.0 | 0.00 | 0.00 | 0.00 | 99 | 1016.4 |
| 20260904054334 | 22 | 205 | 0.0 | 0.0 | 0.00 | 0.00 | 0.00 | 99 | 1016.3 |
| 20260904053829 | 23 | 206 | 0.0 | 0.0 | 0.00 | 0.00 | 0.00 | 99 | 1016.5 |
| 20260904053328 | 23 | 206 | 0.0 | 0.0 | 0.00 | 0.00 | 0.00 | 99 | 1016.5 |
| 20260904052825 | 23 | 205 | 0.0 | 0.0 | 0.00 | 0.00 | 0.00 | 99 | 1016.6 |
| 20260904052321 | 23 | 205 | 0.0 | 0.0 | 0.00 | 0.00 | 0.00 | 99 | 1016.8 |
| 20260904051818 | 23 | 205 | 0.0 | 0.0 | 0.00 | 0.00 | 0.00 | 99 | 1016.8 |
| 20260904051313 | 23 | 205 | 0.0 | 0.0 | 0.00 | 0.00 | 0.00 | 99 | 1016.8 |
| 20260904050808 | 23 | 205 | 0.0 | 0.0 | 0.00 | 0.00 | 0.00 | 99 | 1017.0 |
| 20260904050304 | 23 | 206 | 0.0 | 0.0 | 0.00 | 0.00 | 0.00 | 99 | 1017.1 |
| 20260904045758 | 23 | 205 | 0.0 | 0.0 | 0.00 | 0.00 | 0.00 | 99 | 1017.1 |
| 20260904045254 | 23 | 205 | 0.0 | 0.0 | 0.00 | 0.00 | 0.00 | 99 | 1017.0 |
| 20260904044748 | 23 | 205 | 0.0 | 0.0 | 0.00 | 0.00 | 0.00 | 99 | 1016.9 |
| 20260904044245 | 23 | 205 | 0.0 | 0.0 | 0.00 | 0.00 | 0.00 | 99 | 1017.0 |
| 20260904043740 | 23 | 205 | 0.0 | 0.0 | 0.00 | 0.00 | 0.00 | 99 | 1017.0 |
| 20260904043237 | 23 | 205 | 0.0 | 0.0 | 0.00 | 0.00 | 0.00 | 99 | 1017.0 |
| 20260904042732 | 23 | 205 | 0.0 | 0.0 | 0.00 | 0.00 | 0.00 | 99 | 1017.0 |
| 20260904042228 | 23 | 206 | 0.0 | 0.0 | 0.00 | 0.00 | 0.00 | 99 | 1016.8 |
| 20260904041727 | 23 | 206 | 0.0 | 0.0 | 0.00 | 0.00 | 0.00 | 99 | 1016.9 |
| 20260904041224 | 23 | 206 | 0.0 | 0.0 | 0.00 | 0.00 | 0.00 | 99 | 1017.0 |
| 20260904040720 | 24 | 206 | 0.0 | 0.0 | 0.00 | 0.00 | 0.00 | 99 | 1017.0 |
| 20260904040215 | 24 | 205 | 0.0 | 0.0 | 0.00 | 0.00 | 0.00 | 99 | 1016.9 |
| 20260904035711 | 24 | 205 | 0.0 | 0.0 | 0.00 | 0.00 | 0.00 | 99 | 1016.8 |
| 20260904035206 | 24 | 204 | 0.0 | 1.6 | 0.00 | 0.00 | 0.00 | 99 | 1016.8 |
| 20260904034705 | 24 | 31 | 4.8 | 4.8 | 0.00 | 0.00 | 0.00 | 99 | 1016.8 |
| 20260904034201 | 24 | 181 | 1.6 | 1.6 | 0.00 | 0.00 | 0.00 | 99 | 1016.7 |
| 20260904033657 | 24 | 223 | 1.6 | 3.2 | 0.00 | 0.00 | 0.00 | 99 | 1016.6 |
| 20260904033153 | 23 | 207 | 1.6 | 1.6 | 0.00 | 0.00 | 0.00 | 99 | 1016.6 |